Change the Weather History Date:

Friday, August 30, 2013

  Actual Average Record
Temperature  
Mean Temperature 69 °F 60 °F  
Max Temperature 80 °F 72 °F 88 °F (2010)
Min Temperature 57 °F 48 °F 32 °F (2009)
Degree Days  
Heating Degree Days 0 6  
Month to date heating degree days 135 104  
Since 1 June heating degree days 389 338  
Since 1 July heating degree days 220 174  
Cooling Degree Days 4 1  
Month to date cooling degree days 83 52  
Year to date cooling degree days 210 175  
Since 1 June cooling degree days 207 166  
Growing Degree Days 18 (Base 50)    
Moisture  
Dew Point 62 °F    
Average Humidity 77    
Maximum Humidity 100    
Minimum Humidity 54    
Precipitation  
Precipitation 0.00 in 0.09 in 4.82 in (1942)
Month to date precipitation 3.31 2.72  
Year to date precipitation 24.69 16.87  
Snow  
Snow 0.00 in 0.00 in 0.00 in (2002)
Month to date snowfall 0.0 0.0  
Since 1 June snowfall 0.0 0.0  
Since 1 July snowfall 0.0 0.0  
Snow Depth 0.00 in    
Sea Level Pressure  
Sea Level Pressure 29.94 in    
Wind  
Wind Speed 3 mph (NE)    
Max Wind Speed 10 mph    
Max Gust Speed 14 mph    
Visibility 9 miles    
Events      
T = Trace of Precipitation, MM = Missing Value Source: NWS Daily Summary

Daily Weather History Graph

Daily Weather History Graph

Search for Another Location

Airport or City:

Trip Planner

Search our weather history database for the weather conditions in past years. The results will help you decide how hot, cold, wet, or windy it might be!

Date:

Astronomy

Aug. 30, 2013 Rise Set
Actual Time 6:28 AM CDT 7:58 PM CDT
Civil Twilight 5:55 AM CDT 8:31 PM CDT
Nautical Twilight 5:15 AM CDT 9:11 PM CDT
Astronomical Twilight 4:32 AM CDT 9:54 PM CDT
Moon 12:52 AM CDT (8/30) 4:29 PM CDT (8/30)
Length of Visible Light 14h 35m
Length of Day
13h 30m
Waning Crescent, 29% of the Moon is Illuminated
Aug 30
Waning Crescent
Sep 5
New
Sep 12
First Quarter
Sep 19
Full
Sep 26
Last Quarter

Hourly Weather History & Observations

Time (CDT) Temp. Dew Point Humidity Pressure Visibility Wind Dir Wind Speed Gust Speed Precip Events Conditions
12:13 AM 66.2 °F 62.6 °F 88% 29.89 in 10.0 mi North 8.1 mph - N/A   Overcast
12:28 AM 66.2 °F 62.6 °F 88% 29.89 in 10.0 mi North 6.9 mph - N/A   Scattered Clouds
12:55 AM 64.9 °F 62.1 °F 90% 29.90 in 10.0 mi North 6.9 mph - N/A   Clear
1:33 AM 64.4 °F 62.6 °F 94% 29.90 in 10.0 mi North 6.9 mph - N/A   Mostly Cloudy
1:55 AM 64.9 °F 63.0 °F 93% 29.90 in 10.0 mi North 6.9 mph - N/A   Mostly Cloudy
2:00 AM 64.4 °F 62.6 °F 94% 29.90 in 10.0 mi NNW 6.9 mph - N/A   Overcast
2:17 AM 64.4 °F 62.6 °F 94% 29.91 in 10.0 mi North 6.9 mph - N/A   Overcast
2:55 AM 64.9 °F 62.1 °F 90% 29.91 in 10.0 mi North 6.9 mph - N/A   Scattered Clouds
3:55 AM 63.0 °F 62.1 °F 97% 29.94 in 10.0 mi Calm Calm - N/A   Scattered Clouds
4:10 AM 62.6 °F 62.6 °F 100% 29.95 in 10.0 mi Calm Calm - N/A   Mostly Cloudy
4:20 AM 62.6 °F 60.8 °F 94% 29.95 in 10.0 mi Calm Calm - N/A   Overcast
4:55 AM 64.0 °F 61.0 °F 90% 29.96 in 10.0 mi NNE 5.8 mph - N/A   Overcast
5:37 AM 62.6 °F 60.8 °F 94% 29.96 in 10.0 mi Calm Calm - N/A   Scattered Clouds
5:55 AM 61.0 °F 59.0 °F 93% 29.96 in 10.0 mi Calm Calm - N/A   Clear
6:47 AM 57.2 °F 55.4 °F 94% 29.97 in 2.0 mi North 3.5 mph - N/A   Partly Cloudy
6:55 AM 57.0 °F 55.9 °F 96% 29.98 in 1.5 mi Calm Calm - N/A   Clear
7:01 AM 57.2 °F 55.4 °F 94% 29.98 in 4.0 mi Calm Calm - N/A   Clear
7:55 AM 64.0 °F 61.0 °F 90% 30.00 in 10.0 mi Calm Calm - N/A   Clear
8:55 AM 68.0 °F 63.0 °F 84% 30.01 in 10.0 mi NNE 4.6 mph - N/A   Clear
9:55 AM 70.0 °F 62.1 °F 76% 30.02 in 10.0 mi NNE 3.5 mph - N/A   Clear
10:55 AM 73.0 °F 61.0 °F 66% 30.01 in 10.0 mi Calm Calm - N/A   Clear
11:55 AM 73.9 °F 62.1 °F 66% 30.00 in 10.0 mi Calm Calm - N/A   Clear
12:55 PM 77.0 °F 63.0 °F 62% 29.99 in 10.0 mi Variable 6.9 mph - N/A   Clear
1:55 PM 78.1 °F 61.0 °F 56% 29.99 in 10.0 mi Calm Calm - N/A   Clear
2:55 PM 79.0 °F 62.1 °F 56% 29.97 in 10.0 mi ESE 5.8 mph - N/A   Clear
3:55 PM 79.0 °F 61.0 °F 54% 29.96 in 10.0 mi Calm Calm - N/A   Clear
4:55 PM 79.0 °F 62.1 °F 56% 29.94 in 10.0 mi Calm Calm - N/A   Clear
5:55 PM 78.1 °F 64.0 °F 62% 29.93 in 10.0 mi SE 4.6 mph - N/A   Clear
6:55 PM 73.9 °F 64.9 °F 73% 29.91 in 10.0 mi ESE 5.8 mph - N/A   Clear
7:55 PM 70.0 °F 64.0 °F 81% 29.91 in 10.0 mi Calm Calm - N/A   Clear
8:55 PM 66.0 °F 63.0 °F 90% 29.90 in 10.0 mi ESE 4.6 mph - N/A   Clear
9:55 PM 66.0 °F 63.0 °F 90% 29.88 in 10.0 mi SE 4.6 mph - N/A   Clear
10:55 PM 66.0 °F 63.0 °F 90% 29.86 in 10.0 mi SE 3.5 mph - N/A   Clear
11:55 PM 64.9 °F 62.1 °F 90% 29.85 in 10.0 mi Calm Calm - N/A   Clear